This is the latest recevied weather packets stored in our database for station/object 9M2GDD-1. If no packets are shown the sender has not sent any weather packets the latest 10 day(s).
| Time | Temp. | Humidity | Pressure | Rain* | Wind** | Luminosity | Snow |
|---|---|---|---|---|---|---|---|
| 1787374402 | 33.33° C | 56% | 1014.8 hPa | - | - | - | - |
| 1787373502 | 33.33° C | 53% | 1015 hPa | - | - | - | - |
| 1787372602 | 33.33° C | 54% | 1015.3 hPa | - | - | - | - |
| 1787371702 | 33.33° C | 54% | 1015.2 hPa | - | - | - | - |
| 1787370802 | 32.78° C | 56% | 1015.2 hPa | - | - | - | - |
| 1787369902 | 32.78° C | 56% | 1015.5 hPa | - | - | - | - |
| 1787369002 | 32.22° C | 58% | 1015.7 hPa | - | - | - | - |
| 1787368101 | 32.22° C | 58% | 1015.8 hPa | - | - | - | - |
| 1787367201 | 31.67° C | 59% | 1015.9 hPa | - | - | - | - |
| 1787366301 | 31.67° C | 60% | 1015.9 hPa | - | - | - | - |
| 1787365401 | 31.67° C | 60% | 1016 hPa | - | - | - | - |
| 1787364501 | 31.11° C | 60% | 1015.9 hPa | - | - | - | - |
| 1787363601 | 31.11° C | 59% | 1015.9 hPa | - | - | - | - |
| 1787362701 | 30.56° C | 58% | 1015.8 hPa | - | - | - | - |
| 1787361801 | 30.56° C | 58% | 1015.9 hPa | - | - | - | - |
| 1787360900 | 30° C | 59% | 1016 hPa | - | - | - | - |
| 1787360000 | 29.44° C | 62% | 1015.9 hPa | - | - | - | - |
| 1787359100 | 28.89° C | 66% | 1015.8 hPa | - | - | - | - |
| 1787358200 | 28.33° C | 68% | 1015.6 hPa | - | - | - | - |
| 1787357300 | 27.78° C | 68% | 1015.4 hPa | - | - | - | - |
* Rain since midnight (hover to see other rain measurements)
** Current wind speed in m/s (hover to see current wind gust speed)